WD9EKA Weather Reports


Display with metric or nautical units.
time (UTC)temp
F
wind
direction
speed
MPH
gust
MPH
rain 1hr
in
rain 24hr
in
rain mn
in
humidity
%
barometer
mb
20260509031215 55 189 0.0 0.0 0.03 0.16 0.16 99 1004.8
20260509030655 55 171 0.0 0.0 0.03 0.16 0.16 99 1005.0
20260509030134 55 233 1.0 2.0 0.03 0.15 0.15 99 1004.9
20260509025634 55 182 0.0 0.0 0.03 0.15 0.15 99 1004.9
20260509025034 55 223 1.0 1.0 0.03 0.15 0.15 99 1005.0
20260509024519 55 231 0.0 0.0 0.03 0.15 0.15 99 1005.2
20260509023959 55 231 0.0 0.0 0.02 0.14 0.14 99 1005.1
20260509023438 55 232 0.0 0.0 0.02 0.14 0.14 99 1004.8
20260509022834 55 232 0.0 0.0 0.02 0.14 0.14 99 1004.8
20260509022234 55 232 0.0 0.0 0.02 0.14 0.14 99 1004.9
20260509021634 55 232 0.0 0.0 0.01 0.13 0.13 99 1005.1
20260509015911 55 242 1.0 2.0 0.02 0.12 0.12 99 1005.2
20260509015350 55 258 0.0 0.0 0.02 0.12 0.12 99 1004.9
20260509014830 55 258 0.0 0.0 0.02 0.12 0.12 99 1004.6
20260509014311 55 258 0.0 0.0 0.03 0.12 0.12 99 1004.4
20260509013751 55 258 0.0 0.0 0.03 0.12 0.12 99 1004.2
20260509013231 55 258 0.0 0.0 0.03 0.12 0.12 99 1004.2
20260509012710 55 259 0.0 0.0 0.03 0.12 0.12 99 1004.5
20260509012150 55 259 0.0 0.0 0.03 0.12 0.12 99 1004.8
20260509011630 55 259 0.0 0.0 0.04 0.12 0.12 99 1004.4
20260509011111 55 259 0.0 0.0 0.03 0.11 0.11 99 1004.5
20260509010551 55 258 0.0 0.0 0.05 0.11 0.11 99 1004.5
20260509010031 55 258 0.0 0.0 0.04 0.10 0.10 99 1004.3
20260509005511 55 258 0.0 0.0 0.04 0.10 0.10 99 1004.5
20260509004951 55 258 0.0 0.0 0.04 0.10 0.10 99 1004.5
20260509004431 55 259 0.0 0.0 0.03 0.09 0.09 99 1004.5
20260509003911 55 259 0.0 0.0 0.03 0.09 0.09 99 1004.3
20260509003350 55 259 0.0 0.0 0.03 0.09 0.09 99 1004.0
20260509002831 56 259 0.0 0.0 0.04 0.09 0.09 99 1004.2
20260509002311 56 259 0.0 0.0 0.04 0.09 0.09 99 1004.3
20260509001751 56 259 0.0 0.0 0.04 0.09 0.09 99 1004.3
20260509001231 56 259 0.0 0.0 0.03 0.08 0.08 99 1004.6
20260509000151 56 258 0.0 0.0 0.01 0.06 0.06 99 1004.7
20260508235631 56 258 0.0 0.0 0.02 0.06 0.06 99 1004.3
20260508235111 56 258 0.0 0.0 0.02 0.06 0.06 99 1004.3
20260508234551 56 258 0.0 0.0 0.02 0.06 0.06 99 1004.6
20260508234031 56 259 0.0 0.0 0.02 0.06 0.06 98 1004.5
20260508232951 56 259 0.0 0.0 0.02 0.05 0.05 98 1004.6
20260508232431 56 259 0.0 0.0 0.02 0.05 0.05 98 1004.8
20260508231911 56 259 0.0 0.0 0.03 0.05 0.05 97 1004.9
20260508231351 56 259 0.0 1.0 0.03 0.05 0.05 97 1005.0
20260508230831 56 259 0.0 1.0 0.03 0.05 0.05 97 1004.9
20260508225751 56 311 0.0 0.0 0.03 0.05 0.05 97 1004.9
20260508225231 57 276 0.0 0.0 0.02 0.04 0.04 96 1005.2
20260508224711 57 272 0.0 0.0 0.02 0.04 0.04 96 1005.0
20260508224151 57 243 0.0 0.0 0.02 0.04 0.04 96 1005.1
20260508223631 57 256 1.0 2.0 0.02 0.04 0.04 95 1005.3
20260508223111 57 280 1.0 2.0 0.01 0.03 0.03 95 1005.3
20260508222551 58 282 2.0 4.0 0.01 0.03 0.03 94 1005.4
20260508222031 58 304 0.0 0.0 0.00 0.02 0.02 94 1005.1
20260508221511 58 305 3.0 4.0 0.00 0.02 0.02 94 1005.4
20260508220951 58 275 1.0 2.0 0.00 0.02 0.02 93 1005.3
20260508220431 59 275 0.0 0.0 0.01 0.02 0.02 93 1005.1
20260508215911 59 275 0.0 0.0 0.01 0.02 0.02 93 1004.9
20260508215334 59 275 0.0 1.0 0.01 0.02 0.02 92 1004.9
20260508214815 59 275 0.0 0.0 0.01 0.02 0.02 92 1004.9
20260508214255 59 275 0.0 0.0 0.02 0.02 0.02 91 1004.6
20260508213734 60 253 0.0 0.0 0.02 0.02 0.02 91 1004.6
20260508213215 60 253 0.0 0.0 0.02 0.02 0.02 91 1004.4
20260508212655 60 253 0.0 0.0 0.02 0.02 0.02 90 1004.5
20260508212134 60 253 0.0 0.0 0.02 0.02 0.02 90 1004.4
20260508211615 59 253 1.0 1.0 0.02 0.02 0.02 89 1004.7
20260508211055 59 295 0.0 0.0 0.02 0.02 0.02 89 1004.9
20260508205455 61 260 0.0 1.0 0.01 0.01 0.01 86 1005.0
20260508204934 61 260 0.0 0.0 0.01 0.01 0.01 86 1005.0
20260508204431 62 260 0.0 0.0 0.00 0.00 0.00 85 1005.1
20260508203911 62 260 0.0 0.0 0.00 0.00 0.00 84 1005.0
20260508203351 61 260 0.0 0.0 0.00 0.00 0.00 83 1004.6
20260508202834 61 260 0.0 0.0 0.00 0.00 0.00 84 1004.7
20260508202234 62 260 0.0 0.0 0.00 0.00 0.00 83 1005.0
20260508201734 62 260 0.0 0.0 0.00 0.00 0.00 82 1005.0
20260508201134 62 260 0.0 0.0 0.00 0.00 0.00 80 1004.9
20260508195934 62 260 0.0 1.0 0.00 0.00 0.00 77 1005.2
20260508194834 63 250 1.0 2.0 0.00 0.00 0.00 74 1005.0
20260508194234 63 226 1.0 2.0 0.00 0.00 0.00 72 1005.3
20260508193634 63 204 2.0 2.0 0.00 0.00 0.00 71 1005.3
20260508193034 63 245 4.0 5.0 0.00 0.00 0.00 72 1005.2
20260508192434 64 240 6.0 9.0 0.00 0.00 0.00 72 1005.5
20260508191834 64 232 5.0 8.0 0.00 0.00 0.00 68 1005.5
20260508191234 65 245 4.0 6.0 0.00 0.00 0.00 66 1005.2
20260508190634 65 245 3.0 3.0 0.00 0.00 0.00 67 1005.7
20260508190034 66 219 5.0 6.0 0.00 0.00 0.00 65 1005.7
20260508185434 66 235 6.0 8.0 0.00 0.00 0.00 65 1005.6
20260508184834 66 239 4.0 4.0 0.00 0.00 0.00 64 1005.6
20260508184234 66 222 3.0 4.0 0.00 0.00 0.00 63 1005.6
20260508183634 66 184 4.0 4.0 0.00 0.00 0.00 64 1005.8
20260508183034 66 222 4.0 4.0 0.00 0.00 0.00 63 1005.6
20260508182434 67 233 4.0 4.0 0.00 0.00 0.00 61 1005.6
20260508181834 66 221 2.0 3.0 0.00 0.00 0.00 64 1005.5
20260508181234 66 240 4.0 4.0 0.00 0.00 0.00 66 1005.8
20260508180634 66 207 4.0 5.0 0.00 0.00 0.00 63 1005.8
20260508180034 66 226 6.0 8.0 0.00 0.00 0.00 63 1005.9
20260508175534 66 249 6.0 8.0 0.00 0.00 0.00 62 1005.9
20260508174935 67 197 4.0 5.0 0.00 0.00 0.00 64 1006.0
20260508173134 67 250 8.0 11.0 0.00 0.00 0.00 61 1006.2
20260508172534 68 288 10.0 13.0 0.00 0.00 0.00 62 1006.5
20260508171934 69 273 8.0 10.0 0.00 0.00 0.00 62 1006.7
20260508171334 67 250 5.0 8.0 0.00 0.00 0.00 64 1007.0
20260508170734 66 259 9.0 12.0 0.00 0.00 0.00 61 1007.0
20260508170134 66 262 8.0 9.0 0.00 0.00 0.00 63 1006.9
20260508165634 66 239 12.0 14.0 0.00 0.00 0.00 59 1007.2
20260508165034 67 255 13.0 18.0 0.00 0.00 0.00 62 1007.0
20260508164434 67 203 12.0 14.0 0.00 0.00 0.00 57 1007.1
20260508163834 66 228 5.0 6.0 0.00 0.00 0.00 65 1007.2
20260508163234 65 247 2.0 4.0 0.00 0.00 0.00 65 1007.4
20260508162634 65 226 4.0 6.0 0.00 0.00 0.00 63 1007.6
20260508162034 65 227 4.0 6.0 0.00 0.00 0.00 63 1007.3
20260508161434 66 223 7.0 10.0 0.00 0.00 0.00 60 1007.6
20260508160834 67 187 2.0 4.0 0.00 0.00 0.00 64 1007.6
20260508160234 66 186 6.0 9.0 0.00 0.00 0.00 60 1007.4
20260508155734 65 217 5.0 6.0 0.00 0.00 0.00 62 1007.5
20260508155134 65 246 8.0 9.0 0.00 0.00 0.00 65 1007.5
20260508154534 64 234 2.0 4.0 0.00 0.00 0.00 65 1007.4
20260508153934 64 187 6.0 9.0 0.00 0.00 0.00 64 1007.7
20260508153338 63 224 6.0 6.0 0.00 0.00 0.00 65 1008.0
20260508152134 62 188 4.0 5.0 0.00 0.00 0.00 66 1007.9
20260508150934 62 238 1.0 2.0 0.00 0.00 0.00 66 1008.0
20260508150334 61 232 4.0 5.0 0.00 0.00 0.00 68 1008.1
20260508144634 61 201 2.0 3.0 0.00 0.00 0.00 70 1008.0
20260508144034 60 212 5.0 6.0 0.00 0.00 0.00 68 1008.1
20260508143528 60 226 1.0 2.0 0.00 0.00 0.00 69 1008.2
20260508142447 60 179 4.0 6.0 0.00 0.00 0.00 68 1008.3
20260508141334 59 203 3.0 5.0 0.00 0.00 0.00 71 1008.4
20260508140134 58 222 4.0 5.0 0.00 0.00 0.00 71 1008.4
20260508135534 57 247 4.0 4.0 0.00 0.00 0.00 71 1008.4
20260508134934 57 226 6.0 8.0 0.00 0.00 0.00 70 1008.6
20260508134334 57 226 5.0 5.0 0.00 0.00 0.00 70 1008.6
20260508133734 57 204 7.0 8.0 0.00 0.00 0.00 69 1008.7
20260508133134 57 237 2.0 3.0 0.00 0.00 0.00 71 1008.7
20260508132534 56 246 4.0 6.0 0.00 0.00 0.00 71 1008.8
20260508132034 55 215 1.0 2.0 0.00 0.00 0.00 72 1008.8
20260508131434 56 219 4.0 5.0 0.00 0.00 0.00 71 1008.9
20260508130834 55 235 5.0 6.0 0.00 0.00 0.00 71 1008.8
20260508130234 54 236 3.0 4.0 0.00 0.00 0.00 73 1008.8
20260508125734 54 241 3.0 4.0 0.00 0.00 0.00 72 1008.7
20260508125134 54 201 4.0 4.0 0.00 0.00 0.00 73 1008.8
20260508124534 54 228 2.0 4.0 0.00 0.00 0.00 72 1008.8
20260508123935 54 216 4.0 5.0 0.00 0.00 0.00 72 1008.7
20260508123424 53 234 3.0 4.0 0.00 0.00 0.00 71 1008.8
20260508122905 52 224 1.0 2.0 0.00 0.00 0.00 73 1008.9
20260508122336 52 232 3.0 4.0 0.00 0.00 0.00 74 1008.9
20260508121834 51 212 0.0 1.0 0.00 0.00 0.00 72 1009.0
20260508121234 52 223 1.0 2.0 0.00 0.00 0.00 73 1008.9
20260508120634 51 216 1.0 2.0 0.00 0.00 0.00 73 1009.0
20260508120120 51 221 3.0 3.0 0.00 0.00 0.00 73 1008.9
20260508115600 51 229 2.0 3.0 0.00 0.00 0.00 73 1008.8
20260508115040 51 244 2.0 3.0 0.00 0.00 0.00 73 1009.0
20260508113456 50 215 1.0 2.0 0.00 0.00 0.00 74 1008.8
20260508112934 50 232 1.0 2.0 0.00 0.00 0.00 75 1008.7
20260508112416 50 241 3.0 5.0 0.00 0.00 0.00 75 1008.5
20260508111856 49 220 2.0 3.0 0.00 0.00 0.00 75 1008.6
20260508111334 49 235 1.0 2.0 0.00 0.00 0.00 75 1008.6
20260508110816 49 231 0.0 1.0 0.00 0.00 0.00 74 1008.7
20260508110256 50 216 2.0 2.0 0.00 0.00 0.00 74 1008.7
20260508105734 50 238 5.0 5.0 0.00 0.00 0.00 74 1008.9
20260508104134 50 237 1.0 2.0 0.00 0.00 0.00 74 1008.5
20260508103616 50 215 1.0 1.0 0.00 0.00 0.00 73 1008.5
20260508103056 50 239 2.0 2.0 0.00 0.00 0.00 73 1008.6
20260508102534 50 239 3.0 3.0 0.00 0.00 0.00 73 1008.6
20260508102016 50 221 1.0 2.0 0.00 0.00 0.00 73 1008.5
20260508100934 50 214 3.0 4.0 0.00 0.00 0.00 72 1008.5
20260508100416 50 235 3.0 4.0 0.00 0.00 0.00 72 1008.6
20260508095856 50 232 4.0 6.0 0.00 0.00 0.00 72 1008.5
20260508095334 50 232 1.0 2.0 0.00 0.00 0.00 72 1008.5
20260508094816 50 228 0.0 1.0 0.00 0.00 0.00 71 1008.4
20260508094256 51 220 1.0 3.0 0.00 0.00 0.00 71 1008.6
20260508093734 50 221 4.0 4.0 0.00 0.00 0.00 71 1008.4
20260508093216 50 239 2.0 3.0 0.00 0.00 0.00 71 1008.5
20260508092656 50 223 2.0 3.0 0.00 0.00 0.00 70 1008.3
20260508092134 51 244 3.0 4.0 0.00 0.00 0.00 71 1008.2
20260508091616 51 233 3.0 4.0 0.00 0.00 0.00 70 1008.3
20260508091056 51 220 1.0 2.0 0.00 0.00 0.00 70 1008.5
20260508090534 50 215 3.0 4.0 0.00 0.00 0.00 70 1008.6
20260508090017 50 221 2.0 3.0 0.00 0.00 0.00 70 1008.4
20260508085456 51 248 5.0 8.0 0.00 0.00 0.00 70 1008.5
20260508084934 51 223 0.0 1.0 0.00 0.00 0.00 70 1008.3
20260508084416 51 215 4.0 4.0 0.00 0.00 0.00 70 1008.3
20260508083856 50 211 2.0 2.0 0.00 0.00 0.00 70 1008.3
20260508083334 51 196 1.0 3.0 0.00 0.00 0.00 69 1008.5
20260508082816 50 227 4.0 6.0 0.00 0.00 0.00 70 1008.3
20260508082256 50 234 3.0 4.0 0.00 0.00 0.00 71 1008.6
20260508081734 50 196 1.0 3.0 0.00 0.00 0.00 70 1008.4
20260508081217 50 233 1.0 2.0 0.00 0.00 0.00 70 1008.4
20260508080656 50 239 3.0 4.0 0.00 0.00 0.00 70 1008.5
20260508080134 50 220 2.0 3.0 0.00 0.00 0.00 71 1008.7
20260508075616 50 218 5.0 6.0 0.00 0.00 0.00 70 1008.7
20260508075056 50 233 3.0 4.0 0.00 0.00 0.00 71 1008.9
20260508074534 50 177 2.0 3.0 0.00 0.00 0.00 71 1008.9
20260508074016 51 240 2.0 3.0 0.00 0.00 0.00 70 1008.9
20260508073456 51 233 2.0 2.0 0.00 0.00 0.00 69 1009.1
20260508072934 51 222 4.0 4.0 0.00 0.00 0.00 69 1009.0
20260508072417 51 230 2.0 3.0 0.00 0.00 0.00 69 1009.2
20260508071856 51 212 2.0 3.0 0.00 0.00 0.00 68 1009.0
20260508070816 52 241 2.0 4.0 0.00 0.00 0.00 67 1009.2
20260508070256 52 221 2.0 3.0 0.00 0.00 0.00 67 1009.3
20260508065734 52 236 2.0 3.0 0.00 0.00 0.00 66 1009.4
20260508065216 52 229 4.0 4.0 0.00 0.00 0.00 66 1009.2
20260508064656 52 218 3.0 3.0 0.00 0.00 0.00 66 1009.5
20260508064134 53 217 3.0 4.0 0.00 0.00 0.00 64 1009.4
20260508063616 53 209 3.0 4.0 0.00 0.00 0.00 65 1009.3
20260508062534 53 227 1.0 2.0 0.00 0.00 0.00 65 1009.5
20260508062017 53 215 2.0 3.0 0.00 0.00 0.00 64 1009.7
20260508061456 54 233 3.0 4.0 0.00 0.00 0.00 63 1009.5
20260508060936 54 244 5.0 6.0 0.00 0.00 0.00 62 1009.6
20260508060333 54 218 5.0 8.0 0.00 0.00 0.00 61 1009.6
20260508055733 54 229 7.0 8.0 0.00 0.00 0.00 61 1009.4
20260508055134 54 206 4.0 6.0 0.00 0.00 0.00 63 1009.5
20260508054534 55 240 6.0 9.0 0.00 0.00 0.00 62 1009.6
20260508053334 55 242 1.0 3.0 0.00 0.00 0.00 62 1009.4
20260508052733 55 233 4.0 4.0 0.00 0.00 0.00 60 1009.3
20260508052133 55 155 3.0 3.0 0.00 0.00 0.00 62 1009.6
20260508051533 55 229 4.0 5.0 0.00 0.00 0.00 62 1009.5
20260508050934 55 240 3.0 4.0 0.00 0.00 0.00 63 1009.5
20260508050334 54 210 2.0 4.0 0.00 0.00 0.00 64 1009.4
20260508045734 54 227 2.0 2.0 0.00 0.00 0.00 65 1009.5
20260508045133 54 204 0.0 0.0 0.00 0.00 0.00 69 1009.4
20260508044533 54 211 2.0 4.0 0.00 0.00 0.00 67 1009.5
20260508043934 53 217 0.0 1.0 0.00 0.00 0.00 67 1009.4
20260508043333 54 196 0.0 2.0 0.00 0.00 0.00 68 1009.6
20260508042734 53 229 0.0 0.0 0.00 0.00 0.00 68 1009.3
20260508042134 53 220 2.0 2.0 0.00 0.00 0.00 67 1009.4
20260508041534 53 203 0.0 1.0 0.00 0.00 0.00 69 1009.4
20260508040334 53 222 0.0 1.0 0.00 0.00 0.00 68 1009.4
20260508035733 53 202 1.0 1.0 0.00 0.00 0.00 68 1009.5
20260508034533 53 228 1.0 2.0 0.00 0.00 0.00 69 1009.3
20260508033934 53 222 2.0 2.0 0.00 0.00 0.00 69 1009.3
20260508033334 53 222 1.0 2.0 0.00 0.00 0.00 68 1009.4
20260508032733 54 238 1.0 2.0 0.00 0.00 0.00 67 1009.4
20260508031533 54 219 0.0 2.0 0.00 0.00 0.00 67 1009.7